Location: Newark
(47.5833°N, 8.1500°E)
Time: 01:21:05
(UTC+00:00)

Tiros 1 despin weight - Visible Passes

Search period start: 27 October 2020 00:00
Search period end: 06 November 2020 00:00
Orbit: 594 x 641 km, 48.2° (Epoch: 26 October)

Date Brightness Start Highest point End Pass type
(mag) Time Alt. Az. Time Alt. Az. Time Alt. Az.
27 Oct ? 03:22:42 50° E 03:22:42 50° E 03:26:01 10° E visible
27 Oct ? 04:59:45 17° W 05:03:05 59° SSW 05:07:25 10° ESE visible
28 Oct ? 03:38:33 71° ESE 03:38:33 71° ESE 03:42:30 10° ESE visible
28 Oct ? 05:15:37 12° W 05:19:23 39° SSW 05:23:30 10° SE visible
29 Oct ? 03:54:27 71° SSW 03:54:30 71° SSW 03:58:54 10° ESE visible
29 Oct ? 05:32:00 10° W 05:35:35 24° SW 05:39:09 10° SSE visible
30 Oct ? 02:33:19 13° E 02:33:19 13° E 02:33:51 10° E visible
30 Oct ? 04:10:23 47° SW 04:10:51 50° SSW 04:15:08 10° SE visible
31 Oct ? 02:49:20 16° ESE 02:49:20 16° ESE 02:50:18 10° ESE visible
31 Oct ? 04:26:24 30° SW 04:27:07 32° SSW 04:31:03 10° SSE visible
01 Nov ? 03:05:25 18° SE 03:05:25 18° SE 03:06:39 10° ESE visible
01 Nov ? 04:42:29 19° SW 04:43:15 20° SW 04:46:26 10° S visible
02 Nov ? 03:21:35 17° SE 03:21:35 17° SE 03:22:46 10° SE visible
02 Nov ? 04:58:40 11° SW 04:59:16 11° SW 05:00:23 10° SSW visible
03 Nov ? 03:37:50 13° SSE 03:37:50 13° SSE 03:38:30 10° SSE visible
